{"data":{"norad_id":65140,"epoch":"2026-05-25T01:25:00.585984Z","epoch_age_seconds":66996,"freshness":"FRESH","line1":"1 65140U 25171J   26145.05903456  .00003471  00000+0  48379-3 0  9990","line2":"2 65140  51.8961 175.3591 0000326  71.1109 288.9889 14.79953308 44266","mean_motion":14.79953308,"eccentricity":3.26e-5,"inclination_deg":51.8961,"raan_deg":175.3591,"arg_perigee_deg":71.1109,"mean_anomaly_deg":288.9889,"bstar":0.00048379,"rev_number":4426,"period_min":97.300366992389,"perigee_km":629.24307454656,"apogee_km":629.69997062223,"semimajor_km":7007.6085225844,"source":"CELESTRAK","updated_at":"2026-05-25T13:38:05.166855Z"}}